Location: *
(49.4547°N, 7.9131°E)
Time: 10:26:49
(UTC+00:00)

Cosmos 1934 Rocket - Pass Details

Date: 22 September 2019
Orbit: 938 x 999 km, 83.0° (Epoch: 19 October)

Event Time Altitude Azimuth Distance (km) Brightness Sun altitude
Rises 19:48:05 0° 354° (N) 3,629 7.5 -22.7°
Reaches altitude 10° 19:50:42 10° 1° (N) 2,687 6.7 -23.1°
Maximum altitude 19:56:34 45° 73° (ENE) 1,285 4.3 -23.9°
Enters shadow 19:56:55 45° 83° (E) 1,293 4.3 -24.0°
